Location: Larkspur
(54.4391°N, 113.7691°W)
Time: 13:09:03
(UTC+00:00)

METEOR M2 - Pass Details

Date: 03 December 2023
Orbit: 819 x 826 km, 98.4° (Epoch: 02 March)

Event Time Altitude Azimuth Distance (km) Brightness Sun altitude
Rises 01:53:36 0° 211° (SSW) 3,356 ? -21.9°
Reaches altitude 10° 01:56:39 10° 229° (SW) 2,428 ? -22.4°
Maximum altitude 02:00:24 19° 273° (W) 1,880 ? -22.9°
Drops below altitude 10° 02:04:11 10° 318° (NW) 2,440 ? -23.4°
Sets 02:07:16 0° 336° (NNW) 3,378 ? -23.9°
